Hourly Data Report for January 22, 2021

TORONTO CITY
ONTARIO
Current Station Operator: ECCC - MSC

43°40'00.000" N
79°24'00.000" W
112.50 m
6158355
71508
XTO

Download Data

Hourly Data (January 2021)
Hourly Data Report for January 22, 2021
TIME
LST
Temp Definition
°C
Dew Point Definition
°C
Rel Hum Definition
%
Precip. Amount Definition
mm

Wind Dir Definition
10's deg

Wind Spd Definition
km/h
Visibility Definition
km
Stn Press Definition
kPa
Hmdx Definition


Wind Chill Definition


Weather Definition


00:00 2.5 -3.2 66 0.0       98.58     LegendNANA
01:00 2.6 -3.6 64 0.0       98.60     LegendNANA
02:00 2.1 -3.8 65 0.0       98.64     LegendNANA
03:00 1.9 -4.0 65 0.0       98.68     LegendNANA
04:00 2.0 -3.9 65 0.0       98.73     LegendNANA
05:00 0.8 -1.5 85 0.3       98.79     LegendNANA
06:00 0.5 -2.7 79 0.0       98.87     LegendNANA
07:00 0.4 -3.5 75 0.0       98.95     LegendNANA
08:00 0.1 -3.4 77 0.0       99.06     LegendNANA
09:00 0.0 -5.4 67 0.0       99.17     LegendNANA
10:00 -0.5 -6.7 63 0.0       99.30     LegendNANA
11:00 -0.5 -7.3 60 0.0       99.37     LegendNANA
12:00 -0.4 -8.6 54 0.0       99.43     LegendNANA
13:00 -0.6 -9.1 52 0.0       99.48     LegendNANA
14:00 -1.0 -9.2 54 0.0       99.54     LegendNANA
15:00 -1.4 -9.4 55 0.0       99.64     LegendNANA
16:00 -1.9 -9.2 57 0.0       99.74     LegendNANA
17:00 -3.4 -8.2 70 0.0       99.85     LegendNANA
18:00 -3.6 -9.4 64 0.0       99.94     LegendNANA
19:00 -4.0 -10.1 62 0.0       100.03     LegendNANA
20:00 -4.7 -10.5 63 0.0       100.11     LegendNANA
21:00 -4.9 -9.9 68 0.0       100.17     LegendNANA
22:00 -5.3 -10.2 69 0.0       100.22     LegendNANA
23:00 -5.7 -11.9 62 0.0       100.27     LegendNANA

Notes on Data Quality.

Legend

  • E = Estimated
  • M = Missing
  • NA = Not Available*
  • [empty] = Indicates an unobserved value
Date modified: